Content
SEND FEEDBACK

Daily
Averages
Monthly
Summary
Czech Republic

ZDAR, CZECH REPUBLIC


Home > Europe > Czech Republic
Elevation: 1758 feet     Latitude: 49 35N     Longitude: 015 46E

WEATHER
 
SELECT A DAY
Number of Records: 47,874;   Date Range: 9/15/98 - 12/18/14
 
SHARE

PRINT THIS DATA

[ ← Previous Day ]
WEATHER ALMANAC - JANUARY 31, 2013
[ Next Day → ]
[ °C ]   °F
Weather ElementAverageHighLow
Temperature43.7 °F46.4 °F (12:00 pm)41 °F (4:00 am)
Dewpoint33.2 °F39.2 °F (1:00 am)28.4 °F (5:00 pm)
Humidity66.9 %81 % (1:00 am)50 % (6:00 pm)
Barometer29.84 in29.92 in (9:00 am)29.74 in (8:00 pm)
Wind Speed18.3 mph31.1 mph (6:34 pm)
Wind Gust46 mph (6:34 pm)
Weather ElementAverage
Visibility6.2 mi
Wind DirectionWSW (260.9 °)

Weather ElementTotal
Precipitation---
Heating Degree Days21.3 (Base 65)
Averaged from 23 records on January 31, 2013
WEATHER CONDITIONS BREAKOUT
WIND DIRECTION BREAKOUT
WEATHER BY HOUR - JANUARY 31, 2013
[ °C ]   °F
Local TimeTemperatureDewpointHumidityBarometerVisibilityWind DirectionWind SpeedGust SpeedPrecipitationEventsConditions
1:00 AM44.6 °F39.2 °F81 %29.83 in6.2 miWNW (290°)10.4 mphMostly Cloudy
2:00 AM42.8 °F37.4 °F81 %29.86 inWest (270°)13.8 mphClear
3:00 AM42.8 °F35.6 °F76 %29.89 in6.2 miWest (260°)17.3 mphScattered Clouds
4:00 AM41.0 °F35.6 °F81 %29.89 in6.2 miWSW (250°)15.0 mphPartly Cloudy
5:00 AM42.8 °F33.8 °F70 %29.89 in6.2 miWest (260°)21.9 mphMostly Cloudy
6:00 AM42.8 °F33.8 °F70 %29.89 in6.2 miWest (260°)18.4 mph28.8 mphMostly Cloudy
7:00 AM41.0 °F32.0 °F70 %29.89 inWest (260°)19.6 mphClear
9:00 AM42.8 °F32.0 °F66 %29.92 inWest (260°)21.9 mph34.5 mphClear
10:00 AM44.6 °F32.0 °F61 %29.92 in6.2 miWest (270°)23.0 mph32.2 mphPartly Cloudy
12:00 PM46.4 °F32.0 °F57 %29.92 in6.2 miWest (260°)24.2 mph35.7 mphMostly Cloudy
1:00 PM46.4 °F30.2 °F53 %29.92 in6.2 miWest (260°)21.9 mphOvercast
2:00 PM46.4 °F30.2 °F53 %29.89 inWSW (250°)16.1 mphClear
3:00 PM44.6 °F32.0 °F61 %29.83 inWSW (240°)12.7 mphClear
4:00 PM44.6 °F30.2 °F57 %29.83 inWSW (250°)13.8 mphClear
5:00 PM44.6 °F28.4 °F53 %29.80 inWSW (250°)13.8 mphClear
6:00 PM46.4 °F28.4 °F50 %29.77 inWSW (240°)13.8 mph27.6 mphClear
6:34 PM44.6 °F33.8 °F66 %29.77 in6.2 miWest (280°)31.1 mph46.0 mphOvercast
7:00 PM41.0 °F35.6 °F81 %29.77 in6.2 miWest (280°)23.0 mph34.5 mphRainLight Rain
7:23 PM42.8 °F35.6 °F76 %29.77 in6.2 miWest (260°)11.5 mphOvercast
8:00 PM42.8 °F33.8 °F70 %29.74 inWest (260°)12.7 mphClear
9:00 PM42.8 °F33.8 °F70 %29.74 in6.2 miWest (260°)18.4 mphOvercast
10:00 PM44.6 °F33.8 °F66 %29.74 in6.2 miWest (270°)20.7 mph34.5 mphOvercast
11:00 PM42.8 °F33.8 °F70 %29.74 in6.2 miWest (260°)25.3 mph35.7 mphOvercast
Hourly data recorded from LKPD, located miles away from Zdar, Czech Republic







STORIES FROM OUR PARTNERS